| time (UTC) | temp C | wind direction | speed KPH | gust KPH | rain 1hr cm | rain 24hr cm | rain mn cm | humidity % | barometer mb |
| 20260901185050 | 35 | 0.0 | 0.0 | 0.00 | 0.00 | 0.00 | 23 | 938.6 | |
| 20260901184550 | 35 | 0.0 | 0.0 | 0.00 | 0.00 | 0.00 | 23 | 938.5 | |
| 20260901184050 | 35 | 0.0 | 0.0 | 0.00 | 0.00 | 0.00 | 23 | 938.6 | |
| 20260901183550 | 35 | 0.0 | 0.0 | 0.00 | 0.00 | 0.00 | 23 | 938.5 | |
| 20260901183050 | 36 | 0.0 | 0.0 | 0.00 | 0.00 | 0.00 | 23 | 938.5 | |
| 20260901182550 | 36 | 0.0 | 0.0 | 0.00 | 0.00 | 0.00 | 23 | 938.5 | |
| 20260901182050 | 36 | 0.0 | 0.0 | 0.00 | 0.00 | 0.00 | 23 | 938.5 | |
| 20260901181550 | 36 | 0.0 | 0.0 | 0.00 | 0.00 | 0.00 | 22 | 938.5 | |
| 20260901181050 | 37 | 0.0 | 0.0 | 0.00 | 0.00 | 0.00 | 22 | 938.5 | |
| 20260901180550 | 37 | 0.0 | 0.0 | 0.00 | 0.00 | 0.00 | 22 | 938.5 | |
| 20260901180049 | 37 | 0.0 | 0.0 | 0.00 | 0.00 | 0.00 | 22 | 938.6 | |
| 20260901175049 | 38 | 0.0 | 0.0 | 0.00 | 0.00 | 0.00 | 24 | 936.4 | |
| 20260901172002 | 37 | 0.0 | 0.0 | 0.00 | 0.00 | 0.00 | 31 | 940.5 | |
| 20260901171502 | 37 | 0.0 | 0.0 | 0.00 | 0.00 | 0.00 | 30 | 940.7 | |
| 20260901171002 | 37 | 0.0 | 0.0 | 0.00 | 0.00 | 0.00 | 30 | 939.2 | |
| 20260901145855 | 36 | 0.0 | 0.0 | 0.00 | 0.00 | 0.00 | 34 | 936.9 | |
| 20260901144318 | 35 | 0.0 | 0.0 | 0.00 | 0.00 | 0.00 | 35 | 940.8 | |
| 20260901143818 | 35 | 0.0 | 0.0 | 0.00 | 0.00 | 0.00 | 36 | 940.9 | |
| 20260901143318 | 35 | 0.0 | 0.0 | 0.00 | 0.00 | 0.00 | 35 | 940.9 | |
| 20260901142318 | 35 | 0.0 | 0.0 | 0.00 | 0.00 | 0.00 | 35 | 941.1 | |
| 20260901141818 | 36 | 0.0 | 0.0 | 0.00 | 0.00 | 0.00 | 35 | 940.6 | |
| 20260901131233 | 35 | 0.0 | 0.0 | 0.00 | 0.00 | 0.00 | 36 | 1002.3 | |
| 20260901130223 | 33 | 0.0 | 0.0 | 0.00 | 0.00 | 0.00 | 38 | 1008.4 | |
| 20260901125723 | 33 | 0.0 | 0.0 | 0.00 | 0.00 | 0.00 | 38 | 1008.5 | |
| 20260901125223 | 33 | 0.0 | 0.0 | 0.00 | 0.00 | 0.00 | 38 | 1008.7 | |
| 20260901124723 | 33 | 0.0 | 0.0 | 0.00 | 0.00 | 0.00 | 38 | 1008.6 | |
| 20260901124223 | 33 | 0.0 | 0.0 | 0.00 | 0.00 | 0.00 | 38 | 1008.7 | |
| 20260901123723 | 33 | 0.0 | 0.0 | 0.00 | 0.00 | 0.00 | 38 | 1008.5 | |
| 20260901123222 | 33 | 0.0 | 0.0 | 0.00 | 0.00 | 0.00 | 38 | 1008.6 | |
| 20260901122723 | 32 | 0.0 | 0.0 | 0.00 | 0.00 | 0.00 | 38 | 1008.6 | |
| 20260901122223 | 32 | 0.0 | 0.0 | 0.00 | 0.00 | 0.00 | 39 | 1008.6 | |
| 20260901121723 | 33 | 0.0 | 0.0 | 0.00 | 0.00 | 0.00 | 38 | 1008.6 | |
| 20260901114214 | 30 | 0.0 | 0.0 | 0.00 | 0.00 | 0.00 | 38 | 1011.2 | |
| 20260901113714 | 30 | 0.0 | 0.0 | 0.00 | 0.00 | 0.00 | 37 | 1011.3 | |
| 20260901112714 | 30 | 0.0 | 0.0 | 0.00 | 0.00 | 0.00 | 37 | 1011.1 | |
| 20260901112214 | 30 | 0.0 | 0.0 | 0.00 | 0.00 | 0.00 | 37 | 1011.4 | |
| 20260901110714 | 30 | 0.0 | 0.0 | 0.00 | 0.00 | 0.00 | 37 | 1011.2 | |
| 20260901105714 | 30 | 0.0 | 0.0 | 0.00 | 0.00 | 0.00 | 37 | 1011.4 | |
| 20260901105214 | 30 | 0.0 | 0.0 | 0.00 | 0.00 | 0.00 | 37 | 1011.4 | |
| 20260901103713 | 30 | 0.0 | 0.0 | 0.00 | 0.00 | 0.00 | 37 | 1011.6 | |
| 20260901102713 | 30 | 0.0 | 0.0 | 0.00 | 0.00 | 0.00 | 37 | 1011.7 | |
| 20260901102213 | 30 | 0.0 | 0.0 | 0.00 | 0.00 | 0.00 | 37 | 1011.7 | |
| 20260901085712 | 30 | 0.0 | 0.0 | 0.00 | 0.00 | 0.00 | 38 | 1012.0 | |
| 20260901085212 | 30 | 0.0 | 0.0 | 0.00 | 0.00 | 0.00 | 38 | 1011.9 | |
| 20260901084212 | 30 | 0.0 | 0.0 | 0.00 | 0.00 | 0.00 | 38 | 1012.0 |